KE8DDT-7 Weather Reports


time (UTC)temp
C
wind
direction
speed
KPH
gust
KPH
rain 1hr
cm
rain 24hr
cm
rain mn
cm
humidity
%
barometer
mb
20260506180139 10 0 0.0 3.2 0.00 0.00 0.00 49 1004.5
20260506175638 10 0 0.0 3.2 0.00 0.00 0.00 49 1004.4
20260506175139 10 0 0.0 1.6 0.00 0.00 0.00 51 1004.5
20260506174638 10 0 0.0 4.8 0.00 0.00 0.00 51 1004.7
20260506174138 10 0 0.0 4.8 0.00 0.00 0.00 51 1004.7
20260506173638 10 0 0.0 3.2 0.00 0.00 0.00 54 1004.8
20260506173139 10 0 0.0 4.8 0.00 0.00 0.00 51 1005.0
20260506172639 10 0 0.0 4.8 0.00 0.00 0.00 52 1005.1
20260506171640 10 0 0.0 1.6 0.00 0.00 0.00 53 1005.2
20260506171138 10 0 0.0 1.6 0.00 0.00 0.00 52 1005.2
20260506165339 9 0 0.0 3.2 0.00 0.00 0.00 53 1004.8
20260506164138 9 0 0.0 8.0 0.00 0.00 0.00 52 1004.9
20260506163639 9 0 0.0 14.5 0.00 0.03 0.00 53 1004.9
20260506163138 9 0 0.0 14.5 0.00 0.03 0.00 52 1004.9
20260506162638 9 0 0.0 4.8 0.00 0.05 0.00 55 1004.8
20260506162139 9 0 0.0 11.3 0.00 0.05 0.00 54 1004.8
20260506161640 9 0 0.0 11.3 0.00 0.08 0.00 53 1004.7
20260506161138 9 0 0.0 11.3 0.00 0.10 0.00 54 1004.7
20260506160638 9 0 0.0 11.3 0.00 0.10 0.00 53 1004.9
20260506160138 9 0 0.0 1.6 0.00 0.13 0.00 54 1004.8
20260506155338 9 0 0.0 8.0 0.00 0.13 0.00 56 1004.8
20260506154838 9 0 0.0 8.0 0.00 0.13 0.00 55 1004.8
20260506154338 9 0 0.0 6.4 0.00 0.13 0.00 54 1004.6
20260506153838 9 0 0.0 3.2 0.00 0.13 0.00 54 1004.6
20260506153338 10 0 0.0 4.8 0.00 0.13 0.00 52 1004.6
20260506152838 10 0 0.0 6.4 0.00 0.13 0.00 53 1004.5
20260506152337 10 0 0.0 6.4 0.00 0.13 0.00 53 1004.4
20260506151839 10 0 0.0 4.8 0.00 0.13 0.00 53 1004.4
20260506151338 10 0 0.0 4.8 0.00 0.13 0.00 53 1004.4
20260506150838 10 0 0.0 8.0 0.00 0.13 0.00 55 1004.3
20260506150338 9 0 0.0 8.0 0.00 0.13 0.00 54 1004.4
20260506145838 10 0 0.0 1.6 0.00 0.13 0.00 53 1004.3
20260506145338 10 0 0.0 0.0 0.00 0.13 0.00 57 1004.4
20260506144837 10 0 0.0 1.6 0.00 0.13 0.00 56 1004.3
20260506144338 10 0 0.0 1.6 0.00 0.13 0.00 57 1004.2
20260506143838 10 0 0.0 3.2 0.00 0.13 0.00 56 1004.3
20260506143338 10 0 0.0 3.2 0.00 0.13 0.00 56 1004.3
20260506142838 10 0 0.0 3.2 0.00 0.13 0.00 54 1004.0
20260506142337 10 0 0.0 4.8 0.00 0.13 0.00 57 1003.9
20260506141837 10 0 0.0 4.8 0.00 0.13 0.00 56 1003.8
20260506141338 9 0 0.0 4.8 0.00 0.13 0.00 57 1003.8
20260506140813 9 0 0.0 4.8 0.00 0.13 0.00 55 1003.8
20260506140313 9 0 0.0 1.6 0.00 0.13 0.00 55 1003.8
20260506135813 9 0 0.0 3.2 0.00 0.13 0.00 55 1003.7
20260506135316 9 0 0.0 3.2 0.00 0.13 0.00 53 1003.6
20260506134813 9 0 0.0 3.2 0.00 0.13 0.00 54 1003.6
20260506134313 9 0 0.0 4.8 0.00 0.13 0.00 53 1003.6
20260506133813 9 0 0.0 4.8 0.00 0.13 0.00 55 1003.5
20260506133313 8 0 0.0 1.6 0.00 0.13 0.00 55 1003.6
20260506132813 8 0 0.0 1.6 0.00 0.13 0.00 57 1003.6
20260506132313 8 0 0.0 1.6 0.00 0.13 0.00 58 1003.6
20260506131813 8 0 0.0 4.8 0.00 0.13 0.00 57 1003.4
20260506131313 8 0 0.0 4.8 0.00 0.13 0.00 56 1003.4
20260506130330 8 0 0.0 1.6 0.00 0.13 0.00 60 1003.2
20260506125830 8 0 0.0 1.6 0.00 0.13 0.00 60 1003.2
20260506125330 8 0 0.0 0.0 0.00 0.13 0.00 61 1003.1
20260506124830 7 0 0.0 4.8 0.00 0.13 0.00 61 1003.1
20260506124330 7 0 0.0 4.8 0.00 0.13 0.00 62 1003.1
20260506123830 7 0 0.0 1.6 0.00 0.13 0.00 62 1003.1
20260506123330 7 0 0.0 0.0 0.00 0.13 0.00 62 1002.9
20260506122807 6 0 0.0 0.0 0.00 0.13 0.00 63 1002.9
20260506122204 6 0 0.0 0.0 0.00 0.13 0.00 65 1002.8
20260506121101 6 0 0.0 1.6 0.00 0.13 0.00 66 1002.6
20260506120118 6 0 0.0 0.0 0.00 0.13 0.00 67 1002.4
20260506115618 6 0 0.0 0.0 0.00 0.13 0.00 67 1002.5
20260506115118 6 0 0.0 1.6 0.00 0.13 0.00 66 1002.5
20260506114618 6 0 0.0 1.6 0.00 0.13 0.00 67 1002.5
20260506114118 6 0 0.0 1.6 0.00 0.13 0.00 66 1002.5
20260506113618 6 0 0.0 0.0 0.00 0.13 0.00 67 1002.6
20260506113118 6 0 0.0 0.0 0.00 0.13 0.00 67 1002.3
20260506112618 5 0 0.0 0.0 0.00 0.13 0.00 66 1002.1
20260506112118 5 0 0.0 0.0 0.00 0.13 0.00 67 1002.1
20260506111618 5 0 0.0 0.0 0.00 0.13 0.00 66 1002.1
20260506110320 6 0 0.0 0.0 0.00 0.13 0.00 66 1002.0
20260506105318 6 0 0.0 0.0 0.00 0.13 0.00 65 1001.8
20260506104815 6 0 0.0 0.0 0.00 0.13 0.00 65 1001.7
20260506104319 6 0 0.0 0.0 0.00 0.13 0.00 65 1001.7
20260506103815 6 0 0.0 0.0 0.00 0.13 0.00 65 1001.7
20260506103316 6 0 0.0 0.0 0.00 0.13 0.00 65 1001.5
20260506102815 6 0 0.0 0.0 0.00 0.13 0.00 64 1001.5
20260506102318 6 0 0.0 1.6 0.00 0.13 0.00 65 1001.3
20260506101817 6 0 0.0 1.6 0.00 0.13 0.00 65 1001.4
20260506101317 6 0 0.0 0.0 0.00 0.13 0.00 65 1001.4
20260506100815 6 0 0.0 0.0 0.00 0.13 0.00 65 1001.5
20260506100318 6 0 0.0 0.0 0.00 0.13 0.00 64 1001.4
20260506095815 6 0 0.0 1.6 0.00 0.13 0.00 64 1001.5
20260506095316 7 0 0.0 1.6 0.00 0.13 0.00 64 1001.4
20260506093441 7 0 0.0 0.0 0.00 0.13 0.00 63 1001.1
20260506092941 7 0 0.0 0.0 0.00 0.13 0.00 64 1000.9
20260506092441 7 0 0.0 0.0 0.00 0.13 0.00 64 1000.9
20260506091941 7 0 0.0 0.0 0.00 0.13 0.00 64 1000.8
20260506091442 7 0 0.0 0.0 0.00 0.13 0.00 65 1000.8
20260506090941 7 0 0.0 0.0 0.00 0.13 0.00 64 1000.8
20260506090441 7 0 0.0 4.8 0.00 0.13 0.00 64 1000.9
20260506085941 7 0 0.0 4.8 0.00 0.13 0.00 64 1000.9
20260506085441 7 0 0.0 1.6 0.00 0.13 0.00 64 1001.0
20260506084941 7 0 0.0 0.0 0.00 0.13 0.00 64 1000.8
20260506084441 7 0 0.0 0.0 0.00 0.13 0.00 64 1000.6
20260506083941 7 0 0.0 0.0 0.00 0.13 0.00 64 1000.7
20260506083441 7 0 0.0 0.0 0.00 0.13 0.00 63 1000.6
20260506082941 7 0 0.0 0.0 0.00 0.13 0.00 64 1000.7
20260506082441 7 0 0.0 0.0 0.00 0.13 0.00 63 1000.8
20260506081941 7 0 0.0 0.0 0.00 0.13 0.00 64 1000.8
20260506081441 7 0 0.0 0.0 0.00 0.13 0.00 65 1000.8
20260506080941 7 0 0.0 0.0 0.00 0.13 0.00 64 1000.6
20260506080442 7 0 0.0 0.0 0.00 0.13 0.00 64 1000.7
20260506073441 7 0 0.0 0.0 0.00 0.13 0.00 63 1000.8
20260506072941 7 0 0.0 0.0 0.00 0.13 0.00 63 1000.8
20260506072441 7 0 0.0 0.0 0.00 0.13 0.00 63 1000.8
20260506071941 7 0 0.0 0.0 0.00 0.13 0.00 64 1000.8
20260506071441 7 0 0.0 0.0 0.00 0.13 0.00 63 1000.7
20260506070941 7 0 0.0 1.6 0.00 0.13 0.00 63 1000.6
20260506070441 7 0 0.0 1.6 0.00 0.13 0.00 64 1000.6
20260506062441 8 0 0.0 1.6 0.00 0.13 0.00 61 1000.9
20260506061941 8 0 0.0 1.6 0.00 0.13 0.00 61 1000.9
20260506061441 8 0 0.0 1.6 0.00 0.13 0.00 60 1000.9
20260506060941 8 0 0.0 3.2 0.00 0.13 0.00 62 1000.9
20260506060441 8 0 0.0 3.2 0.00 0.13 0.00 62 1001.2
20260506051032 8 0 0.0 0.0 0.00 0.15 0.00 62 1000.7
20260506050533 8 0 0.0 0.0 0.00 0.15 0.00 63 1000.7
20260506045030 8 0 0.0 1.6 0.00 0.15 0.00 60 1001.0
20260506044530 8 0 0.0 0.0 0.00 0.15 0.00 60 1000.9
20260506044030 8 0 0.0 0.0 0.00 0.15 0.00 61 1000.9
20260506043530 8 0 0.0 0.0 0.00 0.15 0.00 60 1000.9
20260506043030 8 0 0.0 0.0 0.00 0.15 0.00 61 1000.8
20260506042530 8 0 0.0 0.0 0.00 0.18 0.00 60 1000.8
20260506042031 8 0 0.0 0.0 0.00 0.20 0.00 60 1000.7
20260506041530 8 0 0.0 0.0 0.00 0.23 0.00 60 1000.7
20260506035347 8 0 0.0 0.0 0.00 0.23 0.00 60 1000.7
20260506034347 8 0 0.0 0.0 0.00 0.23 0.23 58 1000.6
20260506033847 8 0 0.0 0.0 0.00 0.23 0.23 59 1000.5
20260506033347 8 0 0.0 0.0 0.00 0.23 0.23 59 1000.5
20260506032847 8 0 0.0 0.0 0.00 0.23 0.23 58 1000.6
20260506032347 8 0 0.0 0.0 0.00 0.23 0.23 58 1000.5
20260506031347 8 0 0.0 0.0 0.00 0.23 0.23 59 1000.7
20260506030847 8 0 0.0 0.0 0.00 0.23 0.23 58 1000.7
20260506030348 8 0 0.0 0.0 0.00 0.23 0.23 58 1000.7
20260506025847 8 0 0.0 0.0 0.00 0.23 0.23 58 1000.8
20260506025347 9 0 0.0 0.0 0.00 0.23 0.23 58 1000.7
20260506024847 9 0 0.0 0.0 0.00 0.23 0.23 58 1000.6
20260506024347 9 0 0.0 0.0 0.00 0.23 0.23 59 1000.7
20260506023847 9 0 0.0 0.0 0.00 0.23 0.23 58 1000.7
20260506023347 9 0 0.0 0.0 0.00 0.23 0.23 57 1000.7
20260506022847 9 0 0.0 0.0 0.00 0.23 0.23 56 1000.7
20260506022347 9 0 0.0 0.0 0.00 0.23 0.23 57 1000.7
20260506021347 9 0 0.0 0.0 0.00 0.23 0.23 56 1000.6
20260506020847 9 0 0.0 0.0 0.00 0.23 0.23 56 1000.6
20260506020347 9 0 0.0 0.0 0.00 0.23 0.23 56 1000.5
20260506015847 9 0 0.0 0.0 0.00 0.23 0.23 57 1000.6
20260506015347 9 0 0.0 0.0 0.00 0.23 0.23 57 1000.4
20260506014847 9 0 0.0 0.0 0.00 0.23 0.23 56 1000.5
20260506014040 9 0 0.0 0.0 0.00 0.23 0.23 57 1000.3
20260506012618 9 0 0.0 0.0 0.00 0.23 0.23 56 1000.2
20260506012118 9 0 0.0 0.0 0.00 0.23 0.23 57 1000.2
20260506011618 10 0 0.0 0.0 0.00 0.23 0.23 54 1000.2
20260506011118 10 0 0.0 0.0 0.00 0.23 0.23 54 1000.0
20260506010618 10 0 0.0 1.6 0.00 0.23 0.23 54 999.9
20260506010118 10 0 0.0 1.6 0.00 0.23 0.23 53 999.9
20260506005618 10 0 0.0 3.2 0.00 0.23 0.23 53 1000.1
20260506005117 10 0 0.0 3.2 0.00 0.23 0.23 52 1000.1
20260506004118 10 0 0.0 1.6 0.00 0.23 0.23 53 1000.2
20260506003618 10 0 0.0 1.6 0.00 0.23 0.23 53 1000.2
20260506003118 10 0 0.0 0.0 0.00 0.23 0.23 52 1000.1
20260506002618 10 0 0.0 1.6 0.00 0.23 0.23 50 1000.2
20260506002118 10 0 0.0 11.3 0.00 0.23 0.23 51 1000.2
20260506001617 10 0 0.0 11.3 0.00 0.23 0.23 50 1000.3
20260506001118 10 0 0.0 0.0 0.00 0.23 0.23 50 1000.2
20260506000617 10 0 0.0 1.6 0.00 0.23 0.23 51 1000.2
20260506000118 10 0 0.0 1.6 0.00 0.23 0.23 51 1000.1
20260505235617 10 0 0.0 0.0 0.00 0.23 0.23 50 1000.0
20260505234538 10 0 0.0 0.0 0.00 0.23 0.23 49 999.9
20260505233340 11 0 0.0 0.0 0.00 0.33 0.23 50 999.7
20260505232840 11 0 0.0 3.2 0.00 0.33 0.23 50 999.6
20260505232342 11 0 0.0 3.2 0.00 0.33 0.23 50 999.5
20260505231841 11 0 0.0 1.6 0.00 0.33 0.23 51 999.6
20260505231344 11 0 0.0 1.6 0.00 0.33 0.23 49 999.6
20260505230840 11 0 0.0 0.0 0.00 0.33 0.23 53 999.5
20260505230340 11 0 0.0 0.0 0.00 0.33 0.23 55 999.5
20260505225841 11 0 0.0 0.0 0.00 0.33 0.23 53 999.4
20260505225340 11 0 0.0 0.0 0.00 0.33 0.23 54 999.5
20260505224843 11 0 0.0 0.0 0.00 0.33 0.23 55 999.5
20260505224340 11 0 0.0 0.0 0.00 0.33 0.23 54 999.6
20260505223841 11 0 0.0 0.0 0.00 0.33 0.23 54 999.7
20260505222841 11 0 0.0 0.0 0.00 0.33 0.23 52 999.6
20260505222340 11 0 0.0 0.0 0.00 0.33 0.23 52 999.7
20260505221841 11 0 0.0 0.0 0.00 0.33 0.23 54 999.7
20260505221246 11 0 0.0 0.0 0.00 0.33 0.23 53 999.7
20260505220746 11 0 0.0 0.0 0.00 0.33 0.23 52 999.6
20260505220246 11 0 0.0 1.6 0.00 0.33 0.23 52 999.7
20260505215746 11 0 0.0 4.8 0.00 0.33 0.23 52 999.6
20260505215246 11 0 0.0 4.8 0.00 0.33 0.23 52 999.6
20260505214748 11 0 0.0 4.8 0.00 0.33 0.23 53 999.6
20260505214246 11 0 0.0 4.8 0.00 0.33 0.23 52 999.6
20260505213746 11 0 0.0 4.8 0.00 0.33 0.23 52 999.7
20260505213246 11 0 0.0 3.2 0.00 0.33 0.23 53 999.6
20260505212746 11 0 0.0 3.2 0.00 0.33 0.23 54 999.7
20260505212246 11 0 0.0 3.2 0.00 0.33 0.23 54 999.6
20260505211339 11 0 0.0 6.4 0.00 0.33 0.23 56 999.6
20260505210839 11 0 0.0 6.4 0.00 0.33 0.23 56 999.6
20260505210339 11 0 0.0 3.2 0.00 0.33 0.23 56 999.6
20260505205839 11 0 0.0 3.2 0.00 0.33 0.23 56 999.6
20260505205339 11 0 0.0 0.0 0.00 0.33 0.23 60 999.6
20260505204840 11 0 0.0 0.0 0.00 0.33 0.23 60 999.7
20260505204339 11 0 0.0 0.0 0.00 0.33 0.23 62 999.7
20260505203839 11 0 0.0 3.2 0.00 0.33 0.23 62 999.6
20260505203339 11 0 0.0 3.2 0.00 0.33 0.23 63 999.7
20260505202839 11 0 0.0 1.6 0.00 0.33 0.23 62 999.7
20260505202339 11 0 0.0 3.2 0.00 0.33 0.23 62 999.8
20260505201839 11 0 0.0 3.2 0.00 0.33 0.23 63 999.8
20260505201017 11 0 0.0 0.0 0.00 0.33 0.23 66 999.6
20260505200516 11 0 0.0 0.0 0.00 0.33 0.23 66 999.5
20260505200016 11 0 0.0 1.6 0.00 0.33 0.23 66 999.6
20260505195516 11 0 0.0 1.6 0.00 0.33 0.23 70 999.7
20260505195016 11 0 0.0 0.0 0.00 0.33 0.23 76 999.8
20260505194516 11 0 0.0 0.0 0.00 0.33 0.23 76 999.8
20260505194016 11 0 0.0 0.0 0.00 0.33 0.23 76 999.7
20260505193516 11 0 0.0 0.0 0.00 0.33 0.23 76 999.7
20260505193016 11 0 0.0 0.0 0.00 0.33 0.23 76 999.8
20260505192516 10 0 0.0 0.0 0.00 0.33 0.23 77 999.8
20260505191516 10 0 0.0 3.2 0.00 0.33 0.23 77 999.8
20260505191017 10 0 0.0 3.2 0.00 0.33 0.23 78 999.8
20260505190516 10 0 0.0 3.2 0.00 0.33 0.23 78 999.8
20260505185539 10 0 0.0 1.6 0.00 0.33 0.23 78 999.8
20260505185039 10 0 0.0 6.4 0.00 0.33 0.23 79 999.9
20260505184539 10 0 0.0 6.4 0.00 0.33 0.23 79 999.9
20260505183539 10 0 0.0 1.6 0.00 0.33 0.23 79 999.7
20260505182539 10 0 0.0 1.6 0.00 0.33 0.23 79 999.7
20260505182039 10 0 0.0 1.6 0.00 0.33 0.23 79 999.7
20260505181539 11 0 0.0 1.6 0.00 0.33 0.23 80 999.6
20260505181040 11 0 0.0 3.2 0.00 0.33 0.23 80 999.5
20260505180539 11 0 0.0 3.2 0.00 0.33 0.23 80 999.3